Rocky Mount, NC

7:56 PM EDT on August 20, 2017 (GMT -0400)
Rocky Mount-Wilson Regional

Weather History for KRWI - October, 2014

Change the Weather History Date:

Monday, October 6, 2014

  Actual Average Record
Temperature  
Mean Temperature 58 °F -  
Max Temperature 75 °F 78 °F 101 °F (1954)
Min Temperature 42 °F 51 °F 31 °F (1968)
Degree Days  
Heating Degree Days 6    
Growing Degree Days 8 (Base 50)    
Moisture  
Dew Point 45 °F    
Average Humidity 66    
Maximum Humidity 96    
Minimum Humidity 32    
Precipitation  
Precipitation 0.00 in - - ()
Sea Level Pressure  
Sea Level Pressure 30.07 in    
Wind  
Wind Speed 3 mph (South)    
Max Wind Speed 12 mph    
Max Gust Speed -    
Visibility 10 miles    
Events      
Averages and records for this station are not official NWS values.
T = Trace of Precipitation, MM = Missing Value Source: NWS Daily Summary

Daily Weather History Graph

Daily Weather History Graph

Search for Another Location

Airport or City:

Trip Planner

Search our weather history database for the weather conditions in past years. The results will help you decide how hot, cold, wet, or windy it might be!

Date:

Astronomy

Oct. 06, 2014 Rise Set
Actual Time 7:10 AM EDT 6:48 PM EDT
Civil Twilight 6:45 AM EDT 7:13 PM EDT
Nautical Twilight 6:15 AM EDT 7:43 PM EDT
Astronomical Twilight 5:45 AM EDT 8:12 PM EDT
Moon 5:40 PM EDT (10/6) 4:59 AM EDT (10/6)
Length of Visible Light 12h 28m
Length of Day
11h 37m
Waxing Gibbous, 95% of the Moon is Illuminated
Oct 6
Waxing Gibbous
Oct 8
Full
Oct 15
Last Quarter
Oct 23
New
Oct 30
First Quarter

Hourly Weather History & Observations

Time (EDT) Temp. Dew Point Humidity Pressure Visibility Wind Dir Wind Speed Gust Speed Precip Events Conditions
12:53 AM 45.0 °F 43.0 °F 93% 30.05 in 10.0 mi Calm Calm - N/A   Clear
1:53 AM 45.0 °F 43.0 °F 93% 30.06 in 10.0 mi Calm Calm - N/A   Clear
2:53 AM 44.1 °F 42.1 °F 93% 30.05 in 10.0 mi Calm Calm - N/A   Clear
3:53 AM 45.0 °F 43.0 °F 93% 30.04 in 10.0 mi Calm Calm - N/A   Clear
4:53 AM 43.0 °F 41.0 °F 93% 30.05 in 10.0 mi Calm Calm - N/A   Clear
5:53 AM 43.0 °F 41.0 °F 93% 30.06 in 10.0 mi Calm Calm - N/A   Clear
6:53 AM 42.1 °F 41.0 °F 96% 30.08 in 9.0 mi Calm Calm - N/A   Clear
7:53 AM 46.0 °F 43.0 °F 89% 30.10 in 9.0 mi Calm Calm - N/A   Clear
8:53 AM 52.0 °F 46.9 °F 83% 30.11 in 10.0 mi South 5.8 mph - N/A   Clear
9:53 AM 60.1 °F 48.0 °F 64% 30.12 in 10.0 mi South 4.6 mph - N/A   Clear
10:53 AM 66.0 °F 45.0 °F 47% 30.12 in 10.0 mi South 10.4 mph - N/A   Clear
11:53 AM 70.0 °F 44.1 °F 39% 30.11 in 10.0 mi South 11.5 mph - N/A   Clear
12:53 PM 72.0 °F 44.1 °F 37% 30.08 in 10.0 mi South 9.2 mph - N/A   Clear
1:53 PM 73.9 °F 44.1 °F 34% 30.05 in 10.0 mi South 9.2 mph - N/A   Clear
2:53 PM 75.0 °F 43.0 °F 32% 30.04 in 10.0 mi South 10.4 mph - N/A   Clear
3:53 PM 75.0 °F 44.1 °F 33% 30.04 in 10.0 mi SSW 10.4 mph - N/A   Clear
4:53 PM 73.9 °F 44.1 °F 34% 30.04 in 10.0 mi South 9.2 mph - N/A   Clear
5:53 PM 71.1 °F 46.0 °F 41% 30.04 in 10.0 mi South 5.8 mph - N/A   Clear
6:53 PM 64.9 °F 48.0 °F 54% 30.04 in 10.0 mi SSE 5.8 mph - N/A   Clear
7:53 PM 61.0 °F 48.0 °F 62% 30.06 in 10.0 mi South 4.6 mph - N/A   Clear
8:53 PM 61.0 °F 48.0 °F 62% 30.06 in 10.0 mi SSE 5.8 mph - N/A   Clear
9:53 PM 60.1 °F 50.0 °F 69% 30.08 in 10.0 mi South 5.8 mph - N/A   Clear
10:53 PM 59.0 °F 51.1 °F 75% 30.10 in 10.0 mi South 5.8 mph - N/A   Clear
11:53 PM 59.0 °F 51.1 °F 75% 30.09 in 10.0 mi South 4.6 mph - N/A   Clear